Regional Weather Roundup
Issued by NWS Cleveland, OH

Home | Current Version | Previous Version | Text Only | Print | Product List | Glossary Off
Versions: 1 2 3 4 5 6 7 8 9 10 11 12 13 14 15 16 17 18 19 20 21 22 23 24 25 26 27 28 29 30 31 32 33 34 35 36 37 38 39 40 41 42 43 44 45 46 47 48 49 50

000
ASUS41 KCLE 260300
RWRCLE
OHIO REGIONAL WEATHER ROUNDUP
NATIONAL WEATHER SERVICE WILMINGTON, OH
1000 PM EST SUN JAN 25 2015

NOTE: "FAIR" INDICATES FEW OR NO CLOUDS BELOW 12,000 FEET WITH NO
SIGNIFICANT WEATHER AND/OR OBSTRUCTIONS TO VISIBILITY.

OHZ001>008-015>018-024>027-034-035-043-044-260400-
   NORTHWEST OHIO

CITY           SKY/WX    TMP DP  RH WIND       PRES   REMARKS
DEFIANCE       CLOUDY    19  13  77 NE16G22   29.92S WCI   4
FINDLAY        LGT SNOW  20  15  81 NE18      29.87R VSB 1   WCI   5
TOLEDO EXPRESS FLURRIES  18  11  74 NE13      29.93R WCI   5
TOLEDO EXEC    CLOUDY    18   9  68 NE9G21    29.95R WCI   7
LIMA           SNOW      21  17  84 NE16G25   29.83S VSB 1/2 WCI   7
$$

OHZ009>014-019>023-028>033-038-089-260400-
   NORTHEAST OHIO

CITY           SKY/WX    TMP DP  RH WIND       PRES   REMARKS
CLE-HOPKINS    FLURRIES  20  14  77 NE20      29.91F WCI   4
CLE-LAKEFRONT  FLURRIES  21  13  71 NE15G24   29.90F WCI   8
CUY CO. ARPT   CLOUDY    21  16  79 NE14G22   29.89F WCI   8
LORAIN-ELYRIA  FLURRIES  20  15  81 NE20G29   29.89S WCI   4
ASHTABULA      CLOUDY    19  10  68 NE9G18    29.91S WCI   8
AKRON-CANTON   LGT SNOW  22  18  85 NE16      29.82R VSB 1   WCI   8
WOOSTER        LGT SNOW  22  19  89 NE12      29.83R VSB 3/4 WCI  10
MANSFIELD      LGT SNOW  20  17  88 N10       29.81S VSB 3/4 WCI   9
YOUNGSTOWN     LGT SNOW  19  16  88 N10       29.84F FOG     WCI   7
$$

OHZ042-051>053-060>062-070>072-077>081-260400-
  SOUTHWEST OHIO

CITY           SKY/WX    TMP DP  RH WIND       PRES   REMARKS
CINC-COVINGTON LGT RAIN  39  37  92 NE12      29.68S FOG
CINC-LUNKEN    LGT RAIN  38  37  97 NE8       29.71S FOG
HAMILTON       LGT SNOW  33  32  96 N18G24    29.73S FOG     WCI  22
DAYTON         NOT AVBL
WRIGHT-PAT AFB NOT AVBL
DAYTON GENERAL LGT SNOW  29  27  92 NE16      29.72S FOG     WCI  17
WILMINGTON     LGT SNOW  31  29  92 N12       29.71S FOG     WCI  22
$$

OHZ036-037-039>041-045>050-054>059-063>069-073>076-082>088-260400-
  CENTRAL AND SOUTHEAST OHIO

CITY           SKY/WX    TMP DP  RH WIND       PRES   REMARKS
COLUMBUS       LGT SNOW  32  30  92 NE12      29.75F FOG     WCI  23
OSU AIRPORT    LGT SNOW  28  26  92 N12       29.76S FOG     WCI  18
BOLTON FIELD   NOT AVBL
RICKENBACK AFB NOT AVBL
NEWARK         LGT SNOW  32  29  88 NE7       29.76S FOG     WCI  26
MARION         LGT SNOW  21  18  88 NE17G25   29.82R VSB 3/4 WCI   7
LANCASTER      LGT RAIN  34  32  92 NE10      29.74F FOG     WCI  26
ZANESVILLE     LGT SNOW  32  30  92 N5        29.76S VSB 3/4 WCI  27
NEW PHILLY     LGT SNOW  28  24  85 N5        29.81S FOG     WCI  23
$$



USA.gov is the U.S. government's official web portal to all federal, state and local government web resources and services.